Overview Statistics Trail Chart Weather Telemetry Raw packets
 

This is the latest recevied weather packets stored in our database for station/object W5CDN. If no packets are shown the sender has not sent any weather packets the latest 10 day(s).

<< 56 57 58 59 60 61 62 >>
Time Temp. Humidity Pressure Rain* Wind** Luminosity Snow
1788024236 35° C 48% 1016.8 hPa 0 mm - - -
1788023936 34.44° C 48% 1017.1 hPa 0 mm - - -
1788023636 33.33° C 48% 1017 hPa 0 mm - - -
1788023336 33.89° C 49% 1017 hPa 0 mm - - -
1788023036 33.33° C 49% 1017.1 hPa 0 mm - - -
1788022736 35° C 48% 1016.9 hPa 0 mm - - -
1788022436 34.44° C 48% 1017.1 hPa 0 mm - - -
1788022136 34.44° C 47% 1017 hPa 0 mm - - -
1788021836 34.44° C 49% 1017.1 hPa 0 mm - - -
1788021536 33.33° C 49% 1017.2 hPa 0 mm - - -
1788021236 33.33° C 49% 1017 hPa 0 mm - - -
1788020936 33.89° C 49% 1017.2 hPa 0 mm - - -
1788020636 32.22° C 50% 1017.3 hPa 0 mm - - -
1788020336 32.78° C 51% 1017.5 hPa 0 mm - - -
1788020036 33.89° C 50% 1017.1 hPa 0 mm - - -
1788019736 33.33° C 49% 1017.2 hPa 0 mm - - -
1788019436 32.78° C 52% 1017.4 hPa 0 mm - - -
1788019136 31.67° C 54% 1017.2 hPa 0 mm - - -
1788018836 32.22° C 53% 1017.4 hPa 0 mm - - -
1788018536 31.67° C 53% 1017.2 hPa 0 mm - - -
1788018237 30.56° C 54% 1017.5 hPa 0 mm - - -
1788017936 31.11° C 55% 1017.5 hPa 0 mm - - -
1788017642 30.56° C 56% 1017.5 hPa 0 mm - - -
1788017336 31.67° C 56% 1017.5 hPa 0 mm - - -
1788017036 31.11° C 55% 1017.4 hPa 0 mm - - -

* Rain latest hour (hover to see other rain measurements)
** Current wind speed in m/s (hover to see current wind gust speed)